Tracking 19242 objects as of 18-Sep-2018
HD Live streaming from Space Station
objects crossing your sky now

FENGYUN 1C DEB

Track FENGYUN 1C DEB now!
10-day predictions


NORAD ID: 31348
Int'l Code: 1999-025BRC
Perigee: 800.3 km
Apogee: 858.0 km
Inclination: 99.2 °
Period: 101.3 minutes
Semi major axis: 7200 km
RCS: 0.0184 m2 (small)
Launch date: May 10, 1999
Source: People's Republic of China (PRC)
Launch site: Taiyaun Space Center, China (TSC)

Note: This is SATELLITE DEBRIS
aabbcc
Your satellite tracking list
Your tracking list is empty




NASA's NSSDC Master Catalog

Two Line Element Set (TLE):
1 31348U 99025BRC 18260.40894149 +.00000433 +00000-0 +22025-3 0  9994
2 31348 099.2144 066.6723 0040105 074.8874 348.6300 14.20983354586224
Source of the keplerian elements: AFSPC